Year,Month,Day,Hour,Minute,Value (Times are PST for temperature in C)
2009,03,31,00,00,5.60
2009,03,31,00,01,5.60
2009,03,31,00,02,5.50
2009,03,31,00,03,5.50
2009,03,31,00,04,5.50
2009,03,31,00,05,5.50
2009,03,31,00,06,5.50
2009,03,31,00,07,5.50
2009,03,31,00,08,5.50
2009,03,31,00,09,5.40
2009,03,31,00,10,5.40
2009,03,31,00,11,5.40
2009,03,31,00,12,5.40
2009,03,31,00,13,5.40
2009,03,31,00,14,5.30
2009,03,31,00,15,5.30
2009,03,31,00,16,5.30
2009,03,31,00,17,5.30
2009,03,31,00,18,5.30
2009,03,31,00,19,5.30
2009,03,31,00,20,5.40
2009,03,31,00,21,5.40
2009,03,31,00,22,5.40
2009,03,31,00,23,5.50
2009,03,31,00,24,5.60
2009,03,31,00,25,5.70
2009,03,31,00,26,5.90
2009,03,31,00,27,6.00
2009,03,31,00,28,6.10
2009,03,31,00,29,6.20
2009,03,31,00,30,6.20
2009,03,31,00,31,6.20
2009,03,31,00,32,6.20
2009,03,31,00,33,6.30
2009,03,31,00,34,6.30
2009,03,31,00,35,6.30
2009,03,31,00,36,6.30
2009,03,31,00,37,6.40
2009,03,31,00,38,6.50
2009,03,31,00,39,6.60
2009,03,31,00,40,6.70
2009,03,31,00,41,6.90
2009,03,31,00,42,7.10
2009,03,31,00,43,7.20
2009,03,31,00,44,7.30
2009,03,31,00,45,7.40
2009,03,31,00,46,7.50
2009,03,31,00,47,7.60
2009,03,31,00,48,7.70
2009,03,31,00,49,7.80
2009,03,31,00,50,7.80
2009,03,31,00,51,7.80
2009,03,31,00,52,7.90
2009,03,31,00,53,7.90
2009,03,31,00,54,7.90
2009,03,31,00,55,7.90
2009,03,31,00,56,7.90
2009,03,31,00,57,7.90
2009,03,31,00,58,7.90
2009,03,31,00,59,7.90
2009,03,31,01,00,7.80
2009,03,31,01,01,7.80
2009,03,31,01,02,7.80
2009,03,31,01,03,7.90
2009,03,31,01,04,7.90
2009,03,31,01,05,8.00
2009,03,31,01,06,8.00
2009,03,31,01,07,8.00
2009,03,31,01,08,7.90
2009,03,31,01,09,7.90
2009,03,31,01,10,7.90
2009,03,31,01,11,7.90
2009,03,31,01,12,7.90
2009,03,31,01,13,7.80
2009,03,31,01,14,7.80
2009,03,31,01,15,7.90
2009,03,31,01,16,7.90
2009,03,31,01,17,7.90
2009,03,31,01,18,7.80
2009,03,31,01,19,7.80
2009,03,31,01,20,7.80
2009,03,31,01,21,7.90
2009,03,31,01,22,7.90
2009,03,31,01,23,7.90
2009,03,31,01,24,8.00
2009,03,31,01,25,8.00
2009,03,31,01,26,8.00
2009,03,31,01,27,8.00
2009,03,31,01,28,8.00
2009,03,31,01,29,8.00
2009,03,31,01,30,8.10
2009,03,31,01,31,8.10
2009,03,31,01,32,8.10
2009,03,31,01,33,8.10
2009,03,31,01,34,8.00
2009,03,31,01,35,7.90
2009,03,31,01,36,7.80
2009,03,31,01,37,7.70
2009,03,31,01,38,7.70
2009,03,31,01,39,7.60
2009,03,31,01,40,7.70
2009,03,31,01,41,7.80
2009,03,31,01,42,7.90
2009,03,31,01,43,8.00
2009,03,31,01,44,8.00
2009,03,31,01,45,8.00
2009,03,31,01,46,7.90
2009,03,31,01,47,7.90
2009,03,31,01,48,7.90
2009,03,31,01,49,7.90
2009,03,31,01,50,8.00
2009,03,31,01,51,8.00
2009,03,31,01,52,8.10
2009,03,31,01,53,8.10
2009,03,31,01,54,8.20
2009,03,31,01,55,8.20
2009,03,31,01,56,8.20
2009,03,31,01,57,8.10
2009,03,31,01,58,8.10
2009,03,31,01,59,8.10
2009,03,31,02,00,8.10
2009,03,31,02,01,8.10
2009,03,31,02,02,8.10
2009,03,31,02,03,8.10
2009,03,31,02,04,8.10
2009,03,31,02,05,8.10
2009,03,31,02,06,8.10
2009,03,31,02,07,8.00
2009,03,31,02,08,8.00
2009,03,31,02,09,7.90
2009,03,31,02,10,7.90
2009,03,31,02,11,7.90
2009,03,31,02,12,7.80
2009,03,31,02,13,7.80
2009,03,31,02,14,7.70
2009,03,31,02,15,7.70
2009,03,31,02,16,7.60
2009,03,31,02,17,7.60
2009,03,31,02,18,7.60
2009,03,31,02,19,7.60
2009,03,31,02,20,7.60
2009,03,31,02,21,7.50
2009,03,31,02,22,7.50
2009,03,31,02,23,7.50
2009,03,31,02,24,7.50
2009,03,31,02,25,7.40
2009,03,31,02,26,7.40
2009,03,31,02,27,7.50
2009,03,31,02,28,7.50
2009,03,31,02,29,7.50
2009,03,31,02,30,7.50
2009,03,31,02,31,7.40
2009,03,31,02,32,7.40
2009,03,31,02,33,7.30
2009,03,31,02,34,7.30
2009,03,31,02,35,7.30
2009,03,31,02,36,7.20
2009,03,31,02,37,7.20
2009,03,31,02,38,7.20
2009,03,31,02,39,7.20
2009,03,31,02,40,7.20
2009,03,31,02,41,7.20
2009,03,31,02,42,7.20
2009,03,31,02,43,7.20
2009,03,31,02,44,7.10
2009,03,31,02,45,7.10
2009,03,31,02,46,7.10
2009,03,31,02,47,7.10
2009,03,31,02,48,7.10
2009,03,31,02,49,7.00
2009,03,31,02,50,7.00
2009,03,31,02,51,6.90
2009,03,31,02,52,6.90
2009,03,31,02,53,6.80
2009,03,31,02,54,6.80
2009,03,31,02,55,6.80
2009,03,31,02,56,6.80
2009,03,31,02,57,6.80
2009,03,31,02,58,6.70
2009,03,31,02,59,6.70
2009,03,31,03,00,6.70
2009,03,31,03,01,6.70
2009,03,31,03,02,6.80
2009,03,31,03,03,6.80
2009,03,31,03,04,6.80
2009,03,31,03,05,6.80
2009,03,31,03,06,6.80
2009,03,31,03,07,6.80
2009,03,31,03,08,6.80
2009,03,31,03,09,6.80
2009,03,31,03,10,6.80
2009,03,31,03,11,6.80
2009,03,31,03,12,6.90
2009,03,31,03,13,6.90
2009,03,31,03,14,6.90
2009,03,31,03,15,6.90
2009,03,31,03,16,6.90
2009,03,31,03,17,6.90
2009,03,31,03,18,6.90
2009,03,31,03,19,6.90
2009,03,31,03,20,6.90
2009,03,31,03,21,6.90
2009,03,31,03,22,6.90
2009,03,31,03,23,6.90
2009,03,31,03,24,6.90
2009,03,31,03,25,6.80
2009,03,31,03,26,6.80
2009,03,31,03,27,6.80
2009,03,31,03,28,6.80
2009,03,31,03,29,6.80
2009,03,31,03,30,6.70
2009,03,31,03,31,6.70
2009,03,31,03,32,6.70
2009,03,31,03,33,6.70
2009,03,31,03,34,6.60
2009,03,31,03,35,6.60
2009,03,31,03,36,6.60
2009,03,31,03,37,6.60
2009,03,31,03,38,6.50
2009,03,31,03,39,6.50
2009,03,31,03,40,6.50
2009,03,31,03,41,6.50
2009,03,31,03,42,6.50
2009,03,31,03,43,6.50
2009,03,31,03,44,6.50
2009,03,31,03,45,6.50
2009,03,31,03,46,6.50
2009,03,31,03,47,6.50
2009,03,31,03,48,6.50
2009,03,31,03,49,6.50
2009,03,31,03,50,6.50
2009,03,31,03,51,6.50
2009,03,31,03,52,6.40
2009,03,31,03,53,6.50
2009,03,31,03,54,6.40
2009,03,31,03,55,6.40
2009,03,31,03,56,6.40
2009,03,31,03,57,6.40
2009,03,31,03,58,6.40
2009,03,31,03,59,6.40
2009,03,31,04,00,6.40
2009,03,31,04,01,6.40
2009,03,31,04,02,6.40
2009,03,31,04,03,6.40
2009,03,31,04,04,6.40
2009,03,31,04,05,6.40
2009,03,31,04,06,6.30
2009,03,31,04,07,6.30
2009,03,31,04,08,6.30
2009,03,31,04,09,6.30
2009,03,31,04,10,6.30
2009,03,31,04,11,6.30
2009,03,31,04,12,6.20
2009,03,31,04,13,6.20
2009,03,31,04,14,6.20
2009,03,31,04,15,6.20
2009,03,31,04,16,6.20
2009,03,31,04,17,6.10
2009,03,31,04,18,6.10
2009,03,31,04,19,6.00
2009,03,31,04,20,5.90
2009,03,31,04,21,5.80
2009,03,31,04,22,5.80
2009,03,31,04,23,5.70
2009,03,31,04,24,5.70
2009,03,31,04,25,5.70
2009,03,31,04,26,5.60
2009,03,31,04,27,5.60
2009,03,31,04,28,5.50
2009,03,31,04,29,5.50
2009,03,31,04,30,5.40
2009,03,31,04,31,5.40
2009,03,31,04,32,5.30
2009,03,31,04,33,5.30
2009,03,31,04,34,5.30
2009,03,31,04,35,5.20
2009,03,31,04,36,5.20
2009,03,31,04,37,5.20
2009,03,31,04,38,5.10
2009,03,31,04,39,5.10
2009,03,31,04,40,5.10
2009,03,31,04,41,5.10
2009,03,31,04,42,5.10
2009,03,31,04,43,5.10
2009,03,31,04,44,5.00
2009,03,31,04,45,5.00
2009,03,31,04,46,5.00
2009,03,31,04,47,4.90
2009,03,31,04,48,4.90
2009,03,31,04,49,4.80
2009,03,31,04,50,4.80
2009,03,31,04,51,4.70
2009,03,31,04,52,4.70
2009,03,31,04,53,4.60
2009,03,31,04,54,4.50
2009,03,31,04,55,4.40
2009,03,31,04,56,4.30
2009,03,31,04,57,4.20
2009,03,31,04,58,4.20
2009,03,31,04,59,4.10
2009,03,31,05,00,4.10
2009,03,31,05,01,4.10
2009,03,31,05,02,4.00
2009,03,31,05,03,3.90
2009,03,31,05,04,3.80
2009,03,31,05,05,3.80
2009,03,31,05,06,3.70
2009,03,31,05,07,3.60
2009,03,31,05,08,3.50
2009,03,31,10,02,4.60
2009,03,31,10,03,4.70
2009,03,31,10,04,4.80
2009,03,31,10,05,4.90
2009,03,31,10,06,5.10
2009,03,31,10,07,5.20
2009,03,31,10,08,5.30
2009,03,31,10,09,5.40
2009,03,31,10,10,5.40
2009,03,31,10,11,5.50
2009,03,31,10,12,5.50
2009,03,31,10,13,5.60
2009,03,31,10,14,5.60
2009,03,31,10,15,5.70
2009,03,31,10,16,5.70
2009,03,31,10,17,5.80
2009,03,31,10,18,5.80
2009,03,31,10,19,5.80
2009,03,31,10,20,5.90
2009,03,31,10,21,5.90
2009,03,31,10,22,6.00
2009,03,31,10,23,6.10
2009,03,31,10,24,6.20
2009,03,31,10,25,6.30
2009,03,31,10,26,6.40
2009,03,31,10,27,6.40
2009,03,31,10,28,6.40
2009,03,31,10,29,6.40
2009,03,31,10,30,6.40
2009,03,31,10,31,6.50
2009,03,31,10,32,6.50
2009,03,31,10,33,6.50
2009,03,31,10,34,6.60
2009,03,31,10,35,6.50
2009,03,31,10,36,6.50
2009,03,31,10,37,6.60
2009,03,31,10,38,6.60
2009,03,31,10,39,6.60
2009,03,31,10,40,6.70
2009,03,31,10,41,6.70
2009,03,31,10,42,6.80
2009,03,31,10,43,6.80
2009,03,31,10,44,6.90
2009,03,31,10,45,6.90
2009,03,31,10,46,6.80
2009,03,31,10,47,6.80
2009,03,31,10,48,6.80
2009,03,31,10,49,6.80
2009,03,31,10,50,6.80
2009,03,31,10,51,6.80
2009,03,31,10,52,6.80
2009,03,31,10,53,6.80
2009,03,31,10,54,6.80
2009,03,31,10,55,6.70
2009,03,31,10,56,6.70
2009,03,31,10,57,6.70
2009,03,31,10,58,6.80
2009,03,31,10,59,6.80
2009,03,31,11,00,6.80
2009,03,31,11,01,6.80
2009,03,31,11,02,6.90
2009,03,31,11,03,7.00
2009,03,31,11,04,7.10
2009,03,31,11,05,7.20
2009,03,31,11,06,7.20
2009,03,31,11,07,7.20
2009,03,31,11,08,7.30
2009,03,31,11,09,7.40
2009,03,31,11,10,7.40
2009,03,31,11,11,7.50
2009,03,31,11,12,7.60
2009,03,31,11,13,7.70
2009,03,31,11,14,7.70
2009,03,31,11,15,7.70
2009,03,31,11,16,7.70
2009,03,31,11,17,7.70
2009,03,31,11,18,7.80
2009,03,31,11,19,7.80
2009,03,31,11,20,7.80
2009,03,31,11,21,7.90
2009,03,31,11,22,7.90
2009,03,31,11,23,8.00
2009,03,31,11,24,8.00
2009,03,31,11,25,8.10
2009,03,31,11,26,8.10
2009,03,31,11,27,8.20
2009,03,31,11,28,8.20
2009,03,31,11,29,8.30
2009,03,31,11,30,8.30
2009,03,31,11,31,8.40
2009,03,31,11,32,8.50
2009,03,31,11,33,8.50
2009,03,31,11,34,8.50
2009,03,31,11,35,8.50
2009,03,31,11,36,8.40
2009,03,31,11,37,8.30
2009,03,31,11,38,8.30
2009,03,31,11,39,8.30
2009,03,31,11,40,8.30
2009,03,31,11,41,8.30
2009,03,31,11,42,8.40
2009,03,31,11,43,8.40
2009,03,31,11,44,8.40
2009,03,31,11,45,8.50
2009,03,31,11,46,8.50
2009,03,31,11,47,8.60
2009,03,31,11,48,8.60
2009,03,31,11,49,8.60
2009,03,31,11,50,8.60
2009,03,31,11,51,8.60
2009,03,31,11,52,8.70
2009,03,31,11,53,8.70
2009,03,31,11,54,8.70
2009,03,31,11,55,8.70
2009,03,31,11,56,8.80
2009,03,31,11,57,8.80
2009,03,31,11,58,8.80
2009,03,31,11,59,8.90
2009,03,31,12,00,8.90
2009,03,31,12,01,8.90
2009,03,31,12,02,8.90
2009,03,31,12,03,8.90
2009,03,31,12,04,9.00
2009,03,31,12,05,9.00
2009,03,31,12,06,9.10
2009,03,31,12,07,9.10
2009,03,31,12,08,9.20
2009,03,31,12,09,9.20
2009,03,31,12,10,9.10
2009,03,31,12,11,9.20
2009,03,31,12,12,9.20
2009,03,31,12,13,9.30
2009,03,31,12,14,9.40
2009,03,31,12,15,9.50
2009,03,31,12,16,9.60
2009,03,31,12,17,9.60
2009,03,31,12,18,9.50
2009,03,31,12,19,9.50
2009,03,31,12,20,9.50
2009,03,31,12,21,9.50
2009,03,31,12,22,9.50
2009,03,31,12,23,9.40
2009,03,31,12,24,9.40
2009,03,31,12,25,9.40
2009,03,31,12,26,9.30
2009,03,31,12,27,9.20
2009,03,31,12,28,9.30
2009,03,31,12,29,9.30
2009,03,31,12,30,9.30
2009,03,31,12,31,9.30
2009,03,31,12,32,9.40
2009,03,31,12,33,9.50
2009,03,31,12,34,9.50
2009,03,31,12,35,9.40
2009,03,31,12,36,9.30
2009,03,31,12,37,9.20
2009,03,31,12,38,9.10
2009,03,31,12,39,9.10
2009,03,31,12,40,9.10
2009,03,31,12,41,9.00
2009,03,31,12,42,8.90
2009,03,31,12,43,8.90
2009,03,31,12,44,8.80
2009,03,31,12,45,8.80
2009,03,31,12,46,8.90
2009,03,31,12,47,9.00
2009,03,31,12,48,9.10
2009,03,31,12,49,9.20
2009,03,31,12,50,9.40
2009,03,31,12,51,9.50
2009,03,31,12,52,9.50
2009,03,31,12,53,9.40
2009,03,31,12,54,9.50
2009,03,31,12,55,9.50
2009,03,31,12,56,9.60
2009,03,31,12,57,9.60
2009,03,31,12,58,9.70
2009,03,31,12,59,9.70
2009,03,31,13,00,9.70
2009,03,31,13,01,9.70
2009,03,31,13,02,9.70
2009,03,31,13,03,9.70
2009,03,31,13,04,9.70
2009,03,31,13,05,9.70
2009,03,31,13,06,9.70
2009,03,31,13,07,9.80
2009,03,31,13,08,9.90
2009,03,31,13,09,10.00
2009,03,31,13,10,10.10
2009,03,31,13,11,10.20
2009,03,31,13,12,10.20
2009,03,31,13,13,10.10
2009,03,31,13,14,10.10
2009,03,31,13,15,10.10
2009,03,31,13,16,10.10
2009,03,31,13,17,10.20
2009,03,31,13,18,10.20
2009,03,31,13,19,10.20
2009,03,31,13,20,10.20
2009,03,31,13,21,10.10
2009,03,31,13,22,10.20
2009,03,31,13,23,10.10
2009,03,31,13,24,10.10
2009,03,31,13,25,10.10
2009,03,31,13,26,10.10
2009,03,31,13,27,10.10
2009,03,31,13,28,10.10
2009,03,31,13,29,10.00
2009,03,31,13,30,9.90
2009,03,31,13,31,9.90
2009,03,31,13,32,9.80
2009,03,31,13,33,9.80
2009,03,31,13,34,9.70
2009,03,31,13,35,9.80
2009,03,31,13,36,9.90
2009,03,31,13,37,9.90
2009,03,31,13,38,9.80
2009,03,31,13,39,9.70
2009,03,31,13,40,9.60
2009,03,31,13,41,9.60
2009,03,31,13,42,9.60
2009,03,31,13,43,9.60
2009,03,31,13,44,9.70
2009,03,31,13,45,9.70
2009,03,31,13,46,9.70
2009,03,31,13,47,9.70
2009,03,31,13,48,9.70
2009,03,31,13,49,9.70
2009,03,31,13,50,9.70
2009,03,31,13,51,9.70
2009,03,31,13,52,9.60
2009,03,31,13,53,9.60
2009,03,31,13,54,9.70
2009,03,31,13,55,9.80
2009,03,31,13,56,9.70
2009,03,31,13,57,9.70
2009,03,31,13,58,9.60
2009,03,31,13,59,9.60
2009,03,31,14,00,9.60
2009,03,31,14,01,9.60
2009,03,31,14,02,9.70
2009,03,31,14,03,9.70
2009,03,31,14,04,9.80
2009,03,31,14,05,9.70
2009,03,31,14,06,9.60
2009,03,31,14,07,9.70
2009,03,31,14,08,9.70
2009,03,31,14,09,9.80
2009,03,31,14,10,9.90
2009,03,31,14,11,10.00
2009,03,31,14,12,10.00
2009,03,31,14,13,10.10
2009,03,31,14,14,10.10
2009,03,31,14,15,10.20
2009,03,31,14,16,10.20
2009,03,31,14,17,10.10
2009,03,31,14,18,10.10
2009,03,31,14,19,10.00
2009,03,31,14,20,10.00
2009,03,31,14,21,10.00
2009,03,31,14,22,9.90
2009,03,31,14,23,9.90
2009,03,31,14,24,9.90
2009,03,31,14,25,9.80
2009,03,31,14,26,9.80
2009,03,31,14,27,9.80
2009,03,31,14,28,9.80
2009,03,31,14,29,9.90
2009,03,31,14,30,9.90
2009,03,31,14,31,9.80
2009,03,31,14,32,9.70
2009,03,31,14,33,9.70
2009,03,31,14,34,9.70
2009,03,31,14,35,9.80
2009,03,31,14,36,9.90
2009,03,31,14,37,10.00
2009,03,31,14,38,10.00
2009,03,31,14,39,10.00
2009,03,31,14,40,9.90
2009,03,31,14,41,9.80
2009,03,31,14,42,9.80
2009,03,31,14,43,9.80
2009,03,31,14,44,9.70
2009,03,31,14,45,9.60
2009,03,31,14,46,9.40
2009,03,31,14,47,9.30
2009,03,31,14,48,9.20
2009,03,31,14,49,9.10
2009,03,31,14,50,9.00
2009,03,31,14,51,8.90
2009,03,31,14,52,8.90
2009,03,31,14,53,8.90
2009,03,31,14,54,8.90
2009,03,31,14,55,8.90
2009,03,31,14,56,8.80
2009,03,31,14,57,8.80
2009,03,31,14,58,8.80
2009,03,31,14,59,8.80
2009,03,31,15,00,8.80
2009,03,31,15,01,8.90
2009,03,31,15,02,9.00
2009,03,31,15,03,9.20
2009,03,31,15,04,9.30
2009,03,31,15,05,9.40
2009,03,31,15,06,9.50
2009,03,31,15,07,9.60
2009,03,31,15,08,9.60
2009,03,31,15,09,9.70
2009,03,31,15,10,9.70
2009,03,31,15,11,9.80
2009,03,31,15,12,9.80
2009,03,31,15,13,9.80
2009,03,31,15,14,9.80
2009,03,31,15,15,9.70
2009,03,31,15,16,9.70
2009,03,31,15,17,9.60
2009,03,31,15,18,9.50
2009,03,31,15,19,9.40
2009,03,31,15,20,9.30
2009,03,31,15,21,9.30
2009,03,31,15,22,9.30
2009,03,31,15,23,9.30
2009,03,31,15,24,9.40
2009,03,31,15,25,9.50
2009,03,31,15,26,9.60
2009,03,31,15,27,9.70
2009,03,31,15,28,9.70
2009,03,31,15,29,9.70
2009,03,31,15,30,9.70
2009,03,31,15,31,9.70
2009,03,31,15,32,9.70
2009,03,31,15,33,9.70
2009,03,31,15,34,9.60
2009,03,31,15,35,9.70
2009,03,31,15,36,9.60
2009,03,31,15,37,9.70
2009,03,31,15,38,9.70
2009,03,31,15,39,9.70
2009,03,31,15,40,9.80
2009,03,31,15,41,9.80
2009,03,31,15,42,9.90
2009,03,31,15,43,9.90
2009,03,31,15,44,9.90
2009,03,31,15,45,9.90
2009,03,31,15,46,9.90
2009,03,31,15,47,10.00
2009,03,31,15,48,10.10
2009,03,31,15,49,10.10
2009,03,31,15,50,10.10
2009,03,31,15,51,10.10
2009,03,31,15,52,10.00
2009,03,31,15,53,9.80
2009,03,31,15,54,9.70
2009,03,31,15,55,9.50
2009,03,31,15,56,9.30
2009,03,31,15,57,9.10
2009,03,31,15,58,9.00
2009,03,31,15,59,9.00
2009,03,31,16,00,9.00
2009,03,31,16,01,9.10
2009,03,31,16,02,9.10
2009,03,31,16,03,9.20
2009,03,31,16,04,9.10
2009,03,31,16,05,9.10
2009,03,31,16,06,9.00
2009,03,31,16,07,8.90
2009,03,31,16,08,8.80
2009,03,31,16,09,8.70
2009,03,31,16,10,8.70
2009,03,31,16,11,8.70
2009,03,31,16,12,8.70
2009,03,31,16,13,8.60
2009,03,31,16,14,8.60
2009,03,31,16,15,8.60
2009,03,31,16,16,8.50
2009,03,31,16,17,8.50
2009,03,31,16,18,8.40
2009,03,31,16,19,8.40
2009,03,31,16,20,8.30
2009,03,31,16,21,8.30
2009,03,31,16,22,8.20
2009,03,31,16,23,8.20
2009,03,31,16,24,8.20
2009,03,31,16,25,8.20
2009,03,31,16,26,8.20
2009,03,31,16,27,8.30
2009,03,31,16,28,8.30
2009,03,31,16,29,8.30
2009,03,31,16,30,8.30
2009,03,31,16,31,8.30
2009,03,31,16,32,8.20
2009,03,31,16,33,8.10
2009,03,31,16,34,8.10
2009,03,31,16,35,8.10
2009,03,31,16,36,8.10
2009,03,31,16,37,8.10
2009,03,31,16,38,8.10
2009,03,31,16,39,8.10
2009,03,31,16,40,8.00
2009,03,31,16,41,7.90
2009,03,31,16,42,7.90
2009,03,31,16,43,7.90
2009,03,31,16,44,7.90
2009,03,31,16,45,7.90
2009,03,31,16,46,7.90
2009,03,31,16,47,8.00
2009,03,31,16,48,8.00
2009,03,31,16,49,8.10
2009,03,31,16,50,8.20
2009,03,31,16,51,8.30
2009,03,31,16,52,8.40
2009,03,31,16,53,8.50
2009,03,31,16,54,8.60
2009,03,31,16,55,8.60
2009,03,31,16,56,8.60
2009,03,31,16,57,8.60
2009,03,31,16,58,8.60
2009,03,31,16,59,8.60
2009,03,31,17,00,8.60
2009,03,31,17,01,8.60
2009,03,31,17,02,8.60
2009,03,31,17,03,8.60
2009,03,31,17,04,8.70
2009,03,31,17,05,8.70
2009,03,31,17,06,8.70
2009,03,31,17,07,8.70
2009,03,31,17,08,8.70
2009,03,31,17,09,8.60
2009,03,31,17,10,8.50
2009,03,31,17,11,8.40
2009,03,31,17,12,8.40
2009,03,31,17,13,8.30
2009,03,31,17,14,8.20
2009,03,31,17,15,8.10
2009,03,31,17,16,8.10
2009,03,31,17,17,8.10
2009,03,31,17,18,8.10
2009,03,31,17,19,8.10
2009,03,31,17,20,8.10
2009,03,31,17,21,8.20
2009,03,31,17,22,8.20
2009,03,31,17,23,8.30
2009,03,31,17,24,8.30
2009,03,31,17,25,8.40
2009,03,31,17,26,8.40
2009,03,31,17,27,8.40
2009,03,31,17,28,8.40
2009,03,31,17,29,8.50
2009,03,31,17,30,8.50
2009,03,31,17,31,8.60
2009,03,31,17,32,8.70
2009,03,31,17,33,8.60
2009,03,31,17,34,8.60
2009,03,31,17,35,8.60
2009,03,31,17,36,8.60
2009,03,31,17,37,8.60
2009,03,31,17,38,8.60
2009,03,31,17,39,8.60
2009,03,31,17,40,8.50
2009,03,31,17,41,8.40
2009,03,31,17,42,8.30
2009,03,31,17,43,8.30
2009,03,31,17,44,8.30
2009,03,31,17,45,8.30
2009,03,31,17,46,8.30
2009,03,31,17,47,8.30
2009,03,31,17,48,8.30
2009,03,31,17,49,8.20
2009,03,31,17,50,8.20
2009,03,31,17,51,8.10
2009,03,31,17,52,8.10
2009,03,31,17,53,8.00
2009,03,31,17,54,7.90
2009,03,31,17,55,7.90
2009,03,31,17,56,7.90
2009,03,31,17,57,7.90
2009,03,31,17,58,7.90
2009,03,31,17,59,7.90
2009,03,31,18,00,7.90
2009,03,31,18,01,7.90
2009,03,31,18,02,7.90
2009,03,31,18,03,7.90
2009,03,31,18,04,7.80
2009,03,31,18,05,7.80
2009,03,31,18,06,7.70
2009,03,31,18,07,7.70
2009,03,31,18,08,7.70
2009,03,31,18,09,7.80
2009,03,31,18,10,7.90
2009,03,31,18,11,7.90
2009,03,31,18,12,8.00
2009,03,31,18,13,8.10
2009,03,31,18,14,8.10
2009,03,31,18,15,8.10
2009,03,31,18,16,8.10
2009,03,31,18,17,8.10
2009,03,31,18,18,8.00
2009,03,31,18,19,8.00
2009,03,31,18,20,7.90
2009,03,31,18,21,7.90
2009,03,31,18,22,7.80
2009,03,31,18,23,7.80
2009,03,31,18,24,7.90
2009,03,31,18,25,7.90
2009,03,31,18,26,7.90
2009,03,31,18,27,7.90
2009,03,31,18,28,7.80
2009,03,31,18,29,7.80
2009,03,31,18,30,7.70
2009,03,31,18,31,7.60
2009,03,31,18,32,7.50
2009,03,31,18,33,7.50
2009,03,31,18,34,7.40
2009,03,31,18,35,7.40
2009,03,31,18,36,7.30
2009,03,31,18,37,7.20
2009,03,31,18,38,7.20
2009,03,31,18,39,7.10
2009,03,31,18,40,7.00
2009,03,31,18,41,6.90
2009,03,31,18,42,6.90
2009,03,31,18,43,6.90
2009,03,31,18,44,6.80
2009,03,31,18,45,6.80
2009,03,31,18,46,6.80
2009,03,31,18,47,6.80
2009,03,31,18,48,6.70
2009,03,31,18,49,6.70
2009,03,31,18,50,6.60
2009,03,31,18,51,6.60
2009,03,31,18,52,6.60
2009,03,31,18,53,6.60
2009,03,31,18,54,6.60
2009,03,31,18,55,6.50
2009,03,31,18,56,6.50
2009,03,31,18,57,6.50
2009,03,31,18,58,6.50
2009,03,31,18,59,6.40
2009,03,31,19,00,6.40
2009,03,31,19,01,6.40
2009,03,31,19,02,6.40
2009,03,31,19,03,6.40
2009,03,31,19,04,6.40
2009,03,31,19,05,6.30
2009,03,31,19,06,6.30
2009,03,31,19,07,6.30
2009,03,31,19,08,6.30
2009,03,31,19,09,6.20
2009,03,31,19,10,6.20
2009,03,31,19,11,6.10
2009,03,31,19,12,6.10
2009,03,31,19,13,6.10
2009,03,31,19,14,6.10
2009,03,31,19,15,6.10
2009,03,31,19,16,6.00
2009,03,31,19,17,6.00
2009,03,31,19,18,5.90
2009,03,31,19,19,5.90
2009,03,31,19,20,5.80
2009,03,31,19,21,5.80
2009,03,31,19,22,5.80
2009,03,31,19,23,5.70
2009,03,31,19,24,5.70
2009,03,31,19,25,5.70
2009,03,31,19,26,5.60
2009,03,31,19,27,5.60
2009,03,31,19,28,5.60
2009,03,31,19,29,5.60
2009,03,31,19,30,5.60
2009,03,31,19,31,5.60
2009,03,31,19,32,5.60
2009,03,31,19,33,5.60
2009,03,31,19,34,5.50
2009,03,31,19,35,5.50
2009,03,31,19,36,5.50
2009,03,31,19,37,5.50
2009,03,31,19,38,5.40
2009,03,31,19,39,5.40
2009,03,31,19,40,5.40
2009,03,31,19,41,5.40
2009,03,31,19,42,5.30
2009,03,31,19,43,5.30
2009,03,31,19,44,5.30
2009,03,31,19,45,5.30
2009,03,31,19,46,5.20
2009,03,31,19,47,5.20
2009,03,31,19,48,5.20
2009,03,31,19,49,5.10
2009,03,31,19,50,5.10
2009,03,31,19,51,5.10
2009,03,31,19,52,5.00
2009,03,31,19,53,5.00
2009,03,31,19,54,4.90
2009,03,31,19,55,4.90
2009,03,31,19,56,4.90
2009,03,31,19,57,4.90
2009,03,31,19,58,4.90
2009,03,31,19,59,4.90
2009,03,31,20,00,4.80
2009,03,31,20,01,4.80
2009,03,31,20,02,4.80
2009,03,31,20,03,4.80
2009,03,31,20,04,4.80
2009,03,31,20,05,4.80
2009,03,31,20,06,4.80
2009,03,31,20,07,4.70
2009,03,31,20,08,4.70
2009,03,31,20,09,4.70
2009,03,31,20,10,4.70
2009,03,31,20,11,4.70
2009,03,31,20,12,4.60
2009,03,31,20,13,4.60
2009,03,31,20,14,4.60
2009,03,31,20,15,4.60
2009,03,31,20,16,4.60
2009,03,31,20,17,4.60
2009,03,31,20,18,4.60
2009,03,31,20,19,4.50
2009,03,31,20,20,4.50
2009,03,31,20,21,4.50
2009,03,31,20,22,4.40
2009,03,31,20,23,4.40
2009,03,31,20,24,4.40
2009,03,31,20,25,4.40
2009,03,31,20,26,4.40
2009,03,31,20,27,4.40
2009,03,31,20,28,4.40
2009,03,31,20,29,4.40
2009,03,31,20,30,4.40
2009,03,31,20,31,4.40
2009,03,31,20,32,4.40
2009,03,31,20,33,4.40
2009,03,31,20,34,4.40
2009,03,31,20,35,4.30
2009,03,31,20,36,4.30
2009,03,31,20,37,4.30
2009,03,31,20,38,4.30
2009,03,31,20,39,4.30
2009,03,31,20,40,4.20
2009,03,31,20,41,4.20
2009,03,31,20,42,4.20
2009,03,31,20,43,4.20
2009,03,31,20,44,4.20
2009,03,31,20,45,4.20
2009,03,31,20,46,4.10
2009,03,31,20,47,4.10
2009,03,31,20,48,4.10
2009,03,31,20,49,4.10
2009,03,31,20,50,4.10
2009,03,31,20,51,4.10
2009,03,31,20,52,4.10
2009,03,31,20,53,4.10
2009,03,31,20,54,4.10
2009,03,31,20,55,4.10
2009,03,31,20,56,4.10
2009,03,31,20,57,4.10
2009,03,31,20,58,4.10
2009,03,31,20,59,4.10
2009,03,31,21,00,4.10
2009,03,31,21,01,4.10
2009,03,31,21,02,4.10
2009,03,31,21,03,4.10
2009,03,31,21,04,4.10
2009,03,31,21,05,4.10
2009,03,31,21,06,4.00
2009,03,31,21,07,4.00
2009,03,31,21,08,4.00
2009,03,31,21,09,4.00
2009,03,31,21,10,3.90
2009,03,31,21,11,3.90
2009,03,31,21,12,3.90
2009,03,31,21,13,3.80
2009,03,31,21,14,3.80
2009,03,31,21,15,3.80
2009,03,31,21,16,3.80
2009,03,31,21,17,3.80
2009,03,31,21,18,3.80
2009,03,31,21,19,3.80
2009,03,31,21,20,3.80
2009,03,31,21,21,3.80
2009,03,31,21,22,3.80
2009,03,31,21,23,3.80
2009,03,31,21,24,3.80
2009,03,31,21,25,3.80
2009,03,31,21,26,3.90
2009,03,31,21,27,3.90
2009,03,31,21,28,3.90
2009,03,31,21,29,3.90
2009,03,31,21,30,3.90
2009,03,31,21,31,3.90
2009,03,31,21,32,3.90
2009,03,31,21,33,3.90
2009,03,31,21,34,3.90
2009,03,31,21,35,3.90
2009,03,31,21,36,3.90
2009,03,31,21,37,3.90
2009,03,31,21,38,3.90
2009,03,31,21,39,3.90
2009,03,31,21,40,3.90
2009,03,31,21,41,3.90
2009,03,31,21,42,3.80
2009,03,31,21,43,3.80
2009,03,31,21,44,3.80
2009,03,31,21,45,3.80
2009,03,31,21,46,3.80
2009,03,31,21,47,3.80
2009,03,31,21,48,3.80
2009,03,31,21,49,3.80
2009,03,31,21,50,3.80
2009,03,31,21,51,3.80
2009,03,31,21,52,3.80
2009,03,31,21,53,3.80
2009,03,31,21,54,3.80
2009,03,31,21,55,3.90
2009,03,31,21,56,3.90
2009,03,31,21,57,3.90
2009,03,31,21,58,3.90
2009,03,31,21,59,3.90
2009,03,31,22,00,3.90
2009,03,31,22,01,4.00
2009,03,31,22,02,4.00
2009,03,31,22,03,4.00
2009,03,31,22,04,3.90
2009,03,31,22,05,3.90
2009,03,31,22,06,3.90
2009,03,31,22,07,3.90
2009,03,31,22,08,3.90
2009,03,31,22,09,3.90
2009,03,31,22,10,3.80
2009,03,31,22,11,3.80
2009,03,31,22,12,3.80
2009,03,31,22,13,3.80
2009,03,31,22,14,3.70
2009,03,31,22,15,3.70
2009,03,31,22,16,3.70
2009,03,31,22,17,3.70
2009,03,31,22,18,3.70
2009,03,31,22,19,3.70
2009,03,31,22,20,3.60
2009,03,31,22,21,3.60
2009,03,31,22,22,3.60
2009,03,31,22,23,3.60
2009,03,31,22,24,3.60
2009,03,31,22,25,3.60
2009,03,31,22,26,3.50
2009,03,31,22,27,3.50
2009,03,31,22,28,3.50
2009,03,31,22,29,3.50
2009,03,31,22,30,3.50
2009,03,31,22,31,3.40
2009,03,31,22,32,3.40
2009,03,31,22,33,3.40
2009,03,31,22,34,3.40
2009,03,31,22,35,3.30
2009,03,31,22,36,3.30
2009,03,31,22,37,3.30
2009,03,31,22,38,3.30
2009,03,31,22,39,3.20
2009,03,31,22,40,3.20
2009,03,31,22,41,3.20
2009,03,31,22,42,3.10
2009,03,31,22,43,3.10
2009,03,31,22,44,3.10
2009,03,31,22,45,3.10
2009,03,31,22,46,3.10
2009,03,31,22,47,3.10
2009,03,31,22,48,3.10
2009,03,31,22,49,3.10
2009,03,31,22,50,3.10
2009,03,31,22,51,3.10
2009,03,31,22,52,3.10
2009,03,31,22,53,3.10
2009,03,31,22,54,3.10
2009,03,31,22,55,3.10
2009,03,31,22,56,3.10
2009,03,31,22,57,3.10